EW9931 Weather Reports


Display with metric or nautical units.
time (UTC)temp
F
wind
direction
speed
MPH
gust
MPH
rain 1hr
in
rain 24hr
in
rain mn
in
humidity
%
barometer
mb
20260504190037 40 212 3.0 0.0 0.00 0.00 0.00 58 1007.6
20260504184539 40 205 3.0 0.0 0.00 0.00 0.00 54 1007.8
20260504183037 41 203 3.0 0.0 0.00 0.00 0.00 58 1007.6
20260504181535 41 200 1.0 0.0 0.00 0.00 0.00 57 1007.6
20260504180035 40 133 2.0 0.0 0.00 0.00 0.00 56 1007.6
20260504174534 40 192 1.0 0.0 0.00 0.00 0.00 52 1007.2
20260504173034 41 203 1.0 0.0 0.00 0.00 0.00 53 1006.9
20260504171532 41 117 1.0 0.0 0.00 0.00 0.00 51 1007.0
20260504081544 34 137 1.0 0.0 0.00 0.00 0.00 87 1003.3
20260504050022 36 202 4.0 0.0 0.00 0.00 0.00 87 1002.9
20260504044520 36 171 4.0 0.0 0.00 0.00 0.00 85 1002.9
20260504043018 37 189 3.0 0.0 0.00 0.00 0.00 85 1002.8
20260504041515 37 168 3.0 0.0 0.00 0.00 0.00 85 1002.4
20260504040014 37 119 3.0 0.0 0.00 0.00 0.00 84 1002.7
20260504034511 38 217 2.0 0.0 0.00 0.00 0.00 84 1003.0
20260504033012 38 176 2.0 0.0 0.00 0.00 0.00 84 1002.6
20260504031511 38 213 4.0 0.0 0.00 0.00 0.00 83 1002.5
20260504030005 39 217 5.0 0.0 0.00 0.00 0.00 81 1002.6
20260504024502 40 172 5.0 0.0 0.00 0.00 0.00 80 1002.4
20260504023059 40 144 4.0 0.0 0.00 0.00 0.00 75 1002.0
20260504021557 41 172 2.0 0.0 0.00 0.00 0.00 75 1001.9
20260504020104 42 196 4.0 0.0 0.00 0.00 0.00 71 1001.8
20260504014550 44 124 2.0 0.0 0.00 0.00 0.00 68 1002.0
20260504013052 45 134 1.0 0.0 0.00 0.00 0.00 66 1001.8
20260504011544 47 208 3.0 0.0 0.00 0.00 0.00 62 1001.6
20260504010052 52 209 2.0 0.0 0.00 0.00 0.00 45 1000.6
20260504004545 51 169 2.0 0.0 0.00 0.00 0.00 43 1000.8
20260504003042 51 140 3.0 0.0 0.00 0.00 0.00 51 1001.1
20260504001541 50 226 4.0 0.0 0.00 0.00 0.00 54 1001.1
20260504000038 52 233 4.0 0.0 0.00 0.00 0.00 47 1000.3
20260503234541 55 134 1.0 0.0 0.00 0.00 0.00 41 1000.0
20260503233038 55 133 2.0 0.0 0.00 0.00 0.00 42 1000.2
20260503231537 53 147 3.0 0.0 0.00 0.00 0.00 47 1000.8
20260503230050 54 157 2.0 0.0 0.00 0.00 0.00 48 1000.9
20260503224535 53 199 3.0 0.0 0.00 0.00 0.00 43 1001.2
20260503223035 53 112 3.0 0.0 0.00 0.00 0.00 43 1001.5
20260503221538 53 247 2.0 0.0 0.00 0.00 0.00 44 1001.6
20260503220037 52 308 3.0 0.0 0.00 0.00 0.00 45 1001.6
20260503214546 54 226 3.0 0.0 0.00 0.00 0.00 43 1001.2
20260503213035 53 210 3.0 0.0 0.00 0.00 0.00 36 1001.5
20260503211532 54 270 4.0 0.0 0.00 0.00 0.00 34 1001.3
20260503210031 56 299 3.0 0.0 0.00 0.00 0.00 32 1000.9
20260503204536 56 230 2.0 0.0 0.00 0.00 0.00 29 1000.8
20260503203030 57 210 2.0 0.0 0.00 0.00 0.00 27 1000.4
20260503201528 57 147 2.0 0.0 0.00 0.00 0.00 26 1001.1
20260503200029 57 110 3.0 0.0 0.00 0.00 0.00 27 1001.3
20260503194527 57 191 2.0 0.0 0.00 0.00 0.00 27 1001.5
20260503193024 55 123 3.0 0.0 0.00 0.00 0.00 29 1002.1
20260503191522 54 196 3.0 0.0 0.00 0.00 0.00 31 1002.4